CW1767 Weather Reports


Display with metric or nautical units.
time (UTC)temp
F
wind
direction
speed
MPH
gust
MPH
rain 1hr
in
rain 24hr
in
rain mn
in
humidity
%
barometer
mb
20260906191522 80 72 1.0 4.0 0.00 0.00 0.00 59 1013.4
20260906190021 81 341 2.0 5.0 0.00 0.00 0.00 58 1013.4
20260906184531 81 41 2.0 9.0 0.00 0.00 0.00 57 1013.5
20260906183026 81 325 2.0 9.0 0.00 0.00 0.00 58 1013.6
20260906181546 80 312 3.0 7.0 0.00 0.00 0.00 61 1013.7
20260906180018 81 311 2.0 8.0 0.00 0.00 0.00 57 1013.7
20260906174517 80 321 3.0 8.0 0.00 0.00 0.00 61 1013.8
20260906173020 80 50 2.0 8.0 0.00 0.00 0.00 59 1013.9
20260906171514 79 45 0.0 6.0 0.00 0.00 0.00 61 1014.0
20260906170021 80 64 1.0 5.0 0.00 0.00 0.00 62 1013.9
20260906164516 80 11 0.0 3.0 0.00 0.00 0.00 61 1013.9
20260906163013 79 61 1.0 6.0 0.00 0.00 0.00 64 1014.0
20260906161510 78 342 2.0 5.0 0.00 0.00 0.00 64 1014.1
20260906160005 78 338 1.0 4.0 0.00 0.00 0.00 67 1014.0
20260906154505 78 14 1.0 6.0 0.00 0.00 0.00 66 1014.0
20260906153004 77 337 2.0 5.0 0.00 0.00 0.00 66 1014.0
20260906151501 77 54 2.0 4.0 0.00 0.00 0.00 70 1014.0
20260906150058 76 341 2.0 6.0 0.00 0.00 0.00 73 1014.1
20260906144557 75 317 1.0 6.0 0.00 0.00 0.00 73 1013.9
20260906143054 74 342 1.0 4.0 0.00 0.00 0.00 77 1013.9
20260906141545 73 323 1.0 4.0 0.00 0.00 0.00 81 1013.5
20260906140057 73 351 1.0 4.0 0.00 0.00 0.00 82 1013.4
20260906134541 73 339 0.0 2.0 0.00 0.00 0.00 83 1013.5
20260906133039 71 327 1.0 3.0 0.00 0.00 0.00 85 1013.3
20260906131535 70 337 0.0 5.0 0.00 0.00 0.00 86 1013.4
20260906130031 69 340 1.0 3.0 0.00 0.00 0.00 87 1013.5
20260906124528 68 341 0.0 4.0 0.00 0.00 0.00 88 1013.4
20260906123032 67 340 1.0 4.0 0.00 0.00 0.00 89 1013.3
20260906121528 66 333 1.0 3.0 0.00 0.00 0.00 90 1013.3
20260906120022 65 313 1.0 3.0 0.00 0.00 0.00 90 1013.0
20260906114534 65 311 0.0 1.0 0.00 0.00 0.00 91 1013.0
20260906113023 64 325 0.0 1.0 0.00 0.00 0.00 91 1013.0
20260906111526 63 288 0.0 1.0 0.00 0.00 0.00 91 1012.6
20260906110018 63 275 0.0 1.0 0.00 0.00 0.00 91 1012.4
20260906104518 63 275 0.0 0.0 0.00 0.00 0.00 91 1012.4
20260906103016 63 275 0.0 0.0 0.00 0.00 0.00 91 1012.2
20260906101515 63 275 0.0 1.0 0.00 0.00 0.00 91 1012.0
20260906100017 63 275 0.0 0.0 0.00 0.00 0.00 91 1011.8
20260906094511 64 275 0.0 0.0 0.00 0.00 0.00 91 1011.6
20260906093011 64 275 0.0 1.0 0.00 0.00 0.00 91 1011.5
20260906091515 64 275 0.0 1.0 0.00 0.00 0.00 90 1011.3
20260906090008 64 319 0.0 1.0 0.00 0.00 0.00 90 1011.3
20260906084507 64 283 0.0 1.0 0.00 0.00 0.00 90 1011.2
20260906083008 65 283 0.0 1.0 0.00 0.00 0.00 90 1011.2
20260906081506 65 282 0.0 1.0 0.00 0.00 0.00 90 1011.1
20260906080006 65 282 0.0 0.0 0.00 0.00 0.00 90 1010.9
20260906074505 65 284 0.0 0.0 0.00 0.00 0.00 91 1010.9
20260906073004 65 284 0.0 0.0 0.00 0.00 0.00 92 1010.9
20260906071503 65 284 0.0 0.0 0.00 0.00 0.00 92 1010.9
20260906070003 65 284 0.0 0.0 0.00 0.00 0.00 92 1010.9
20260906064507 65 284 0.0 0.0 0.00 0.00 0.00 93 1010.8
20260906063001 65 284 0.0 0.0 0.00 0.00 0.00 93 1010.9
20260906061600 65 284 0.0 0.0 0.00 0.00 0.00 93 1011.0
20260906060147 65 284 0.0 0.0 0.00 0.00 0.00 93 1011.0
20260906054601 65 284 0.0 0.0 0.00 0.00 0.00 93 1011.2
20260906053055 66 283 0.0 0.0 0.00 0.00 0.00 93 1011.4
20260906051553 66 284 0.0 0.0 0.00 0.00 0.00 93 1011.3
20260906050110 66 284 0.0 0.0 0.00 0.00 0.00 93 1011.2
20260906044551 66 284 0.0 0.0 0.00 0.00 0.00 92 1011.5
20260906043050 67 284 0.0 0.0 0.00 0.00 0.00 92 1011.6
20260906041549 67 284 0.0 0.0 0.00 0.00 0.00 92 1011.5
20260906040046 67 283 0.0 0.0 0.00 0.00 0.00 91 1011.5
20260906034555 67 284 0.0 0.0 0.00 0.00 0.00 91 1011.7
20260906033045 68 284 0.0 0.0 0.00 0.00 0.00 91 1011.6
20260906031606 68 284 0.0 0.0 0.00 0.00 0.00 90 1011.6
20260906030041 69 284 0.0 0.0 0.00 0.00 0.00 91 1011.7
20260906024543 69 284 0.0 0.0 0.00 0.00 0.00 90 1011.8
20260906023050 69 284 0.0 0.0 0.00 0.00 0.00 89 1011.7
20260906021536 70 284 0.0 0.0 0.00 0.00 0.00 88 1011.6
20260906020044 70 283 0.0 0.0 0.00 0.00 0.00 87 1011.6
20260906014532 71 284 0.0 0.0 0.00 0.00 0.00 86 1011.5
20260906013030 71 284 0.0 0.0 0.00 0.00 0.00 86 1011.3
20260906011527 72 284 0.0 0.0 0.00 0.00 0.00 85 1011.2
20260906010028 73 284 0.0 0.0 0.00 0.00 0.00 83 1010.8
20260906004527 73 283 0.0 0.0 0.00 0.00 0.00 83 1010.9
20260906003026 73 283 0.0 0.0 0.00 0.00 0.00 81 1010.8
20260906001529 73 284 0.0 0.0 0.00 0.00 0.00 82 1010.9
20260906000025 74 284 0.0 0.0 0.00 0.00 0.00 79 1010.5
20260905234525 74 284 0.0 0.0 0.00 0.00 0.00 76 1010.5
20260905233025 76 284 0.0 1.0 0.00 0.00 0.00 75 1010.3
20260905231533 77 329 0.0 1.0 0.00 0.00 0.00 71 1010.4
20260905230024 78 329 0.0 0.0 0.00 0.00 0.00 67 1010.3
20260905224523 78 329 0.0 2.0 0.00 0.00 0.00 66 1010.3
20260905223023 79 338 0.0 2.0 0.00 0.00 0.00 65 1010.1
20260905221522 79 331 0.0 4.0 0.00 0.00 0.00 63 1009.9
20260905220021 80 323 0.0 3.0 0.00 0.00 0.00 64 1009.8
20260905214521 80 331 0.0 2.0 0.00 0.00 0.00 64 1009.8
20260905213021 80 330 0.0 5.0 0.00 0.00 0.00 64 1009.6
20260905211520 81 355 0.0 5.0 0.00 0.00 0.00 65 1009.4
20260905210019 81 328 0.0 5.0 0.00 0.00 0.00 64 1009.3
20260905204520 81 331 2.0 9.0 0.00 0.00 0.00 64 1009.2
20260905203018 82 290 2.0 5.0 0.00 0.00 0.00 65 1009.0
20260905201519 81 331 1.0 4.0 0.00 0.00 0.00 67 1008.9
20260905200019 82 295 0.0 5.0 0.00 0.00 0.00 67 1008.6
20260905194516 82 61 0.0 3.0 0.00 0.00 0.00 68 1008.7
20260905193015 82 332 1.0 3.0 0.00 0.00 0.00 66 1009.1